ELECTRON KICK STAGE R/B

Satellite information

Favourite Embed

Satellite Type and Status

ROCKET BODYIN ORBIT

Key statistics

Satellite ELECTRON KICK STAGE R/B at a glance.

Uptime

1207

Days in orbit

Revolutions

≈ 15.0

Per day

Orbit

LEO

Low Earth Orbit

Inclination

40.0

Latest

Satellite identification and parameters

Extended collection of information and parameters for ELECTRON KICK STAGE R/B.

Object identification

Identified? True

Debris? False

Object name: ELECTRON KICK STAGE R/B

International designator: 2022-079C

Object number (NORAD): 53104

Object ID (CCSDS): 53104

Country: UNITED STATES OF AMERICA (US)

Current information (Y/N): Y

RCS size: MEDIUM

Orbital parameters

Period: 96.143 minutes

Inclination: 40.0135 deg

SMA: 6951.919 km

Apoapsis: 578.354 km

Periapsis: 569.214 km

RAAN: 77.1661 deg

Eccentricy: 0.0006574

Argument of periapsis: 84.5489 deg

Mean anomaly: 275.6053 deg

Mean motion: 14.97771939 rev/day

Mean motion (dot): 0.0000894 rev/day2

B* drag term: 0.00075954 1/REarth

Two-line elements (TLE)

Creation date: Oct. 31, 2025, 11:06 p.m.

Reference frame: TEME

Reference center: EARTH

Epoch: Oct. 31, 2025, 5:57 p.m. UTC

TLE line 0: 0 ELECTRON KICK STAGE R/B

TLE line 1: 1 53104U 22079C 25304.74820369 .00008940 00000-0 75954-3 0 9990

TLE line 2: 2 53104 40.0135 77.1661 0006574 84.5489 275.6053 14.97771939 81077

Live tracking on map

Real-time ground track for satellite ELECTRON KICK STAGE R/B.

In-orbit conjunctions

A list of the most updated potential collisions computed for object ELECTRON KICK STAGE R/B.

Target Orbit TCA Probability of collision Miss distance Type
COSMOS 2251 DEB LEO 2024-07-15 05:04:33 0.0003830081 269.0 (m) DEBRIS
SL-14 R/B LEO 2024-06-29 20:56:27 0.0004502343 872.0 (m) ROCKET BODY

Associated space launch

Classified payload for the US National Reconnaissance Office (NRO).

ELECTRON KICK STAGE R/B was lifted into orbit during the mission ‘Electron | Wise One Looks Ahead (NROL-162)’, on board a Electron space rocket.

The launch took place on July 13, 2022, 6:30 a.m. from Rocket Lab Launch Complex 1A.

For more information about the launch, click the button.

Launch to space Electron | Wise One Looks Ahead (NROL-162)
Electron | Wise One Looks Ahead (NROL-162)

Agency: National Reconnaissance Office

Status: Launch Successful

Launch date: July 13, 2022, 6:30 a.m. UTC

Rocket: Electron

Launch pad: Rocket Lab Launch Complex 1A

Location: Rocket Lab Launch Complex 1, Mahia Peninsula, New Zealand

...

Latest news about this satellite

News about space launch
Rocket Lab launches first of two back-to-back missions for NRO

Rocket Lab launched its 28th Electron rocket on the “Wise One Looks Ahead” mission, also designated National Reconnaissance Office Launch (NROL)-162. NROL-162 is the first of two back-to-back Electron missions for the National Reconnaissance Office (NRO)....

News about space launch
NRO space missions mark new level of US-Australia cooperation

Two upcoming Rocket Lab launches for the National Reconnaissance Office will send to orbit classified spy satellites that the U.S. intelligence agency developed jointly with the Australian government.


Newsletter sign-up

Weekly statistics, charts and insights to help you stay on top of the space industry.